星链-4521 (STARLINK-4521 )

导读

STARLINK-4521是美国太空探索技术公司(SpaceX)于北京时间2022年8月10日发射的星链(Starlink)卫星,归属星链互联网星座组网卫星,用于为全球提供低延迟、高速率的卫星互联网服务。星链通过批量发射低轨卫星搭建太空通信网络,该卫星是星链项目批量组网进程中的一员,服务全球用户的卫星互联网接入需求。

基本信息
目录编号:
53391
目录名称:
STARLINK-4521
国际标识:
2022-097D
轨道中心:
EARTH
卫星名称:
星链-4521
卫星全名:
星链-4521 (STARLINK-4521 )
卫星状态:
在轨 (已飞行1486 天)
发射日期:
2022-08-10 UTC
国别 :
美国 (US)
星等 :
--
轨道信息
数据来源 国际轨道数据 AOE轨道数据
星历时间 2026-09-04T09:31:40+0800
8小时前
查看轨道信息
2026-08-30T02:00:00+0800
5天前
查看轨道信息
半长轴 6848.888km 6848.891km
偏心率 0.0001489 0.0000663
轨道倾角 53.162° 53.157°
近地点辐角 58.550° 102.480°
升交点赤经 35.453° 60.196°
平近点角 301.564° 101.117°
近地点 469.731km 470.299km
远地点 471.771km 471.209km
周期 94.013分钟 94.013分钟
每日圈数 15.316965 15.316955
详细信息
固有亮度:
5
最大亮度:
2.5
卫星平台:
Starlink v1.5
覆盖范围:
全球
运营商:
太空探索技术公司
运营商所在国:
美国
制造商(研发单位):
太空探索技术公司
制造商所在国:
美国
使用方式:
暂无
卫星简介
星链(Starlink)计划是由太空探索技术公司(SpaceX)提出的一个巨型低轨卫星互联网星座项目,计划在2019年至2024年间在太空搭建由约1.2万颗卫星组成的“星链”网络,其中1584颗将部署在地球上空550千米处的近地轨道,并从2020年开始工作。该卫星仍在工作。
2D轨道图
3D轨道图
轨道高度分析图
轨道倾角分析图
轨道综合分析图
查看轨道综合分析图